sat.trackr.live / text

‹ back to catalog

STARLINK-36798

NORAD 67798 · 2026-032B

PAYLOAD ACTIVE UNKNOWN

§ Identity

Operator
Country
US
Launch date
2026-02-15
Launch site
AFWTR
Launch vehicle
Mass (kg)
RCS (m²)

Purposes: comms

External: N2YO · Heavens-Above · Gunter

§ Orbital elements

Epoch: 2026-05-25T01:36:15.043392Z

Period
93.91 min
Inclination
97.2851°
Eccentricity
0.0001377
Mean motion
15.33447175 rev/d
Perigee alt
464.6 km
Apogee alt
466.5 km
Semi-major
6,843.7 km
B*
4.0100e-4
RAAN
333.1286°
Arg perigee
107.0203°
Mean anomaly
253.1191°
Rev number
1,666

§ Raw data

STARLINK-367981 67798U 26032B   26145.06684078  .00012894  00000+0  40100-3 0  99982 67798  97.2851 333.1286 0001377 107.0203 253.1191 15.33447175 16669

JSON: /api/v1/satellites/67798 · /tle

For live sub-satellite position, see the globe view (requires WebGL).

§ Visibility from observer

Set your observer location to see the next 7 days of passes ≥ 10°. The values pass through the URL so the page stays shareable.

No JS? Fill the form by hand. The geolocation button needs JavaScript.